Weather Roundup
Issued by NWS

Home | Current Version | Previous Version | Graphics & Text | Print | Product List | Glossary Off
Versions: 1 2 3 4 5 6 7 8 9 10 11 12 13 14 15 16 17 18 19 20 21 22 23 24 25 26 27 28 29 30 31 32 33 34 35 36 37 38 39 40 41 42 43 44 45 46 47 48 49 50

000
NZUS93 KARX 031510
HRRWXR

CURRENT HOURLY OBSERVATIONS ACROSS
MUCH OF THE UPPER MISSISSIPPI VALLEY
NATIONAL WEATHER SERVICE LA CROSSE WI
900 AM CST SAT DEC 03 2016


...SOUTHEAST MINNESOTA...


CITY           SKY/WX    TMP DP  RH WIND       PRES   REMARKS
ROCHESTER      CLOUDY    29  22  75 W3        30.28S
ROCHESTER/MAYO CLOUDY    29  23  77 CALM      30.29S
WINONA         CLOUDY    32  25  74 CALM      30.33R
AUSTIN         CLOUDY    28  19  69 W8        30.29S WCI  20
ALBERT LEA     CLOUDY    30  25  80 NW6       30.29S WCI  24
DODGE CENTER   CLOUDY    27  23  86 CALM      30.28S
PRESTON        CLOUDY    28  22  76 W6        30.29S WCI  22
OWATONNA       CLOUDY    28  23  80 SW3       30.29S
FARIBAULT      CLOUDY    28  21  74 SW3       30.30S
$$

...ELSEWHERE IN MINNESOTA...


CITY           SKY/WX    TMP DP  RH WIND       PRES   REMARKS
MINNEAPOLIS    CLOUDY    29  20  69 W5        30.30S WCI  24
INTNL FALLS    CLOUDY    24  20  84 SE3       30.22F
DULUTH         FLURRIES  27  23  85 NW5       30.24S WCI  22
RED WING       CLOUDY    30  21  69 CALM      30.30S
REDWOOD FALLS  CLOUDY    28  19  69 E5        30.26F WCI  23
MANKATO        CLOUDY    28  20  71 SW6       30.30S WCI  22
WORTHINGTON    SUNNY     28  25  88 SE9       30.23F WCI  19
FAIRMONT       CLOUDY    29  21  72 E5        30.28F WCI  24
$$

...SOUTHWEST WISCONSIN...


CITY           SKY/WX    TMP DP  RH WIND       PRES   REMARKS
LA CROSSE      CLOUDY    32  23  69 CALM      30.32S
PRAIRIE DU CHI CLOUDY    32  23  69 CALM      30.33S
BOSCOBEL       CLOUDY    32  23  69 CALM      30.34R
LONE ROCK      CLOUDY    31  22  69 CALM      30.34S
PLATTEVILLE    CLOUDY    31  26  80 N6        30.32S WCI  25
FORT MC COY    CLOUDY    30  23  74 NW5       30.32R WCI  25
CAMP DOUGLAS   FLURRIES  28  21  74 W3        30.31F
MAUSTON-NEW LI CLOUDY    30  22  74 NW6       30.31F WCI  24
VIROQUA        CLOUDY    28  24  82 CALM      30.29R
WIS DELLS      CLOUDY    29  21  73 W7        30.32R WCI  22
$$

...ELSEWHERE IN WISCONSIN...


CITY           SKY/WX    TMP DP  RH WIND       PRES   REMARKS
MILWAUKEE      CLOUDY    32  22  66 VRB6      30.33F WCI  26
MADISON        CLOUDY    30  21  69 NW7       30.33S WCI  23
GREEN BAY      CLOUDY    33  26  75 W8        30.31S WCI  26
EAU CLAIRE     CLOUDY    29  25  85 SW3       30.29F
BLACK RVR FLS  CLOUDY    30  21  69 W3        30.30F
MEDFORD        CLOUDY    27  20  75 CALM      30.26S
WAUSAU         CLOUDY    29  22  75 NW7       30.27S WCI  22
WIS RAPIDS     CLOUDY    30  23  75 W6        30.30F WCI  24
MARSHFIELD     FLURRIES  28  23  81 W8        30.26F WCI  20
RICE LAKE      CLOUDY    29  26  89 SW3       30.29S
$$

...NORTHEAST IOWA...


CITY           SKY/WX    TMP DP  RH WIND       PRES   REMARKS
WATERLOO       PTSUNNY   33  25  72 CALM      30.30F
DUBUQUE        CLOUDY    30  23  75 NE5       30.31F WCI  25
DECORAH        CLOUDY    30  27  86 CALM      30.29F
MASON CITY     CLOUDY    30  22  72 N5        30.30F WCI  25
CHARLES CITY   CLOUDY    32  28  86 N3        30.30F
OELWEIN        CLOUDY    30  27  86 CALM      30.31F
$$

...ELSEWHERE IN IOWA...


CITY           SKY/WX    TMP DP  RH WIND       PRES   REMARKS
DES MOINES     PTSUNNY   37  30  75 S5        30.31S WCI  33
IOWA CITY      CLOUDY    35  26  69 CALM      30.35S
FORT DODGE     SUNNY     34  28  80 CALM      30.27F
MARSHALLTOWN   CLOUDY    34  30  85 CALM      30.30F
CEDAR RAPIDS   CLOUDY    32  27  81 S7        30.31F WCI  26
$$

...NORTHERN ILLINOIS...


CITY           SKY/WX    TMP DP  RH WIND       PRES   REMARKS
CHICAGO-OHARE  CLOUDY    32  21  64 NW9       30.33F WCI  24
CHICAGO-MIDWAY CLOUDY    34  22  61 N8        30.34F WCI  27
MOLINE         CLOUDY    35  23  61 N8        30.34F WCI  29
ROCKFORD       CLOUDY    32  23  69 NW7       30.36S WCI  26
PEORIA         MOSUNNY   36  26  67 VRB6      30.36S WCI  31
$$

NOTE: "FAIR" INDICATES FEW OR NO CLOUDS BELOW 12,000 FEET WITH NO
SIGNIFICANT WEATHER AND/OR OBSTRUCTIONS TO VISIBILITY. WIND
SPEEDS ARE IN MILES-PER-HOUR.




USA.gov is the U.S. government's official web portal to all federal, state and local government web resources and services.